Location: *
(49.7115°N, 15.0136°E)
Time: 20:16:13
(UTC+00:00)

STARLINK-1055 - Pass Details

Date: 27 February 2020
Orbit: 548 x 551 km, 53.0° (Epoch: 30 March)

Event Time Altitude Azimuth Distance (km) Brightness Sun altitude
Rises 18:48:49 0° 249° (WSW) 2,711 8.1 -21.8°
Reaches altitude 10° 18:51:03 10° 251° (WSW) 1,820 7.0 -22.1°
Maximum altitude 18:55:11 82° 339° (NNW) 559 3.5 -22.8°
Enters shadow 18:55:19 81° 14° (NNE) 562 3.5 -22.8°
